Weather History for Hoquiam, WA

Change the Weather History Date:

Tuesday, February 12, 2013

  Actual Average Record
Temperature  
Mean Temperature 46 °F 44 °F  
Max Temperature 48 °F 50 °F 65 °F (1996)
Min Temperature 44 °F 38 °F 28 °F (2009)
Degree Days  
Heating Degree Days 19 21  
Month to date heating degree days 262  
Cooling Degree Days 0 0  
Month to date cooling degree days 0  
Year to date cooling degree days 0  
Moisture  
Dew Point 46 °F    
Average Humidity 97    
Maximum Humidity 100    
Minimum Humidity 93    
Precipitation  
Precipitation 0.27 in 0.27 in 1.67 in (1979)
Month to date precipitation 3.35  
Year to date precipitation 13.68  
Sea Level Pressure  
Sea Level Pressure 30.39 in    
Wind  
Wind Speed 6 mph (SW)    
Max Wind Speed 17 mph    
Max Gust Speed -    
Visibility 4 miles    
Events Rain    
T = Trace of Precipitation, MM = Missing Value Source: NWS Daily Summary

Daily Weather History Graph

Daily Weather History Graph

Search for Another Location

Airport:

Trip Planner

Search our weather history database for the weather conditions in past years. The results will help you decide how hot, cold, wet, or windy it might be!

Date:

Astronomy

Feb. 12, 2013 Rise Set
Actual Time 7:24 AM PST 5:36 PM PST
Civil Twilight 6:52 AM PST 6:07 PM PST
Nautical Twilight 6:17 AM PST 6:43 PM PST
Astronomical Twilight 5:41 AM PST 7:18 PM PST
Moon 8:10 AM PST (2/12) 8:59 PM PST (2/12)
Length of Visible Light 11h 14m
Length of Day
10h 11m
Waxing Crescent, 8% of the Moon is Illuminated
Feb 12
Waxing Crescent
Feb 17
First Quarter
Feb 25
Full
Mar 4
Last Quarter
Mar 11
New

Hourly Weather History & Observations

Time (PST) Temp. Windchill Dew Point Humidity Pressure Visibility Wind Dir Wind Speed Gust Speed Precip Events Conditions
12:06 AM 44.6 °F - 44.6 °F 100% 30.36 in 2.5 mi Calm Calm - 0.01 in   Overcast
12:12 AM 44.6 °F - 44.6 °F 100% 30.37 in 4.0 mi Calm Calm - 0.01 in   Overcast
12:51 AM 44.6 °F 43.1 °F 44.6 °F 100% 30.37 in 1.8 mi SW 3.5 mph - 0.01 in   Overcast
12:53 AM 45.0 °F - 44.1 °F 97% 30.38 in 1.8 mi Calm Calm - 0.01 in   Overcast
1:03 AM 44.6 °F - 44.6 °F 100% 30.37 in 3.0 mi Calm Calm - N/A   Overcast
1:53 AM 46.0 °F 43.1 °F 45.0 °F 96% 30.38 in 10.0 mi WSW 5.8 mph - N/A   Overcast
2:23 AM 46.4 °F 42.9 °F 44.6 °F 93% 30.37 in 10.0 mi WSW 6.9 mph - N/A   Overcast
2:53 AM 45.0 °F 42.6 °F 44.1 °F 97% 30.38 in 10.0 mi SW 4.6 mph - N/A   Overcast
3:35 AM 46.4 °F - 44.6 °F 93% 30.36 in 10.0 mi Calm Calm - N/A   Overcast
3:53 AM 46.0 °F - 45.0 °F 96% 30.37 in 9.0 mi Calm Calm - N/A   Overcast
4:15 AM 46.4 °F - 44.6 °F 93% 30.36 in 4.0 mi Calm Calm - N/A   Overcast
4:27 AM 46.4 °F - 44.6 °F 93% 30.36 in 2.0 mi Calm Calm - 0.01 in   Overcast
4:29 AM 46.4 °F - 44.6 °F 93% 30.36 in 1.8 mi Calm Calm - 0.01 in   Overcast
4:53 AM 46.0 °F - 45.0 °F 96% 30.38 in 1.5 mi Calm Calm - 0.02 in   Overcast
5:53 AM 45.0 °F - 45.0 °F 100% 30.38 in 2.0 mi Calm Calm - 0.02 in   Overcast
6:01 AM 44.6 °F - 44.6 °F 100% 30.36 in 1.5 mi Calm Calm - N/A   Overcast
6:23 AM 46.4 °F - 44.6 °F 93% 30.36 in 2.0 mi Calm Calm - 0.01 in   Overcast
6:50 AM 46.4 °F - 44.6 °F 93% 30.37 in 1.5 mi Calm Calm - 0.01 in   Overcast
6:53 AM 46.0 °F - 45.0 °F 96% 30.38 in 1.5 mi Calm Calm - 0.01 in   Overcast
7:13 AM 46.4 °F - 44.6 °F 93% 30.37 in 2.5 mi Calm Calm - N/A   Overcast
7:50 AM 46.4 °F - 44.6 °F 93% 30.38 in 1.0 mi Calm Calm - 0.01 in   Overcast
7:53 AM 46.0 °F - 45.0 °F 96% 30.40 in 0.8 mi Calm Calm - 0.01 in   Overcast
8:10 AM 46.4 °F 44.3 °F 44.6 °F 93% 30.39 in 1.2 mi West 4.6 mph - N/A   Overcast
8:16 AM 46.4 °F 42.4 °F 46.4 °F 100% 30.40 in 3.0 mi WSW 8.1 mph - N/A   Overcast
8:38 AM 46.4 °F 41.5 °F 46.4 °F 100% 30.40 in 10.0 mi WSW 10.4 mph - N/A   Overcast
8:53 AM 46.9 °F - 46.0 °F 97% 30.42 in 9.0 mi WSW 10.4 mph - N/A   Overcast
9:50 AM 46.4 °F 41.9 °F 46.4 °F 100% 30.42 in 10.0 mi WSW 9.2 mph - N/A   Overcast
9:53 AM 46.9 °F - 46.0 °F 97% 30.43 in 10.0 mi WSW 9.2 mph - N/A   Overcast
10:27 AM 46.4 °F 40.4 °F 46.4 °F 100% 30.42 in 5.0 mi SW 13.8 mph - N/A   Overcast
10:33 AM 46.4 °F 41.9 °F 46.4 °F 100% 30.42 in 1.8 mi WSW 9.2 mph - N/A   Overcast
10:53 AM 46.9 °F - 46.0 °F 97% 30.44 in 1.8 mi WSW 12.7 mph - N/A   Overcast
11:00 AM 46.4 °F 41.5 °F 46.4 °F 100% 30.43 in 3.0 mi WSW 10.4 mph - N/A   Overcast
11:31 AM 46.4 °F 41.9 °F 46.4 °F 100% 30.43 in 2.0 mi WSW 9.2 mph - N/A   Overcast
11:33 AM 46.4 °F 42.4 °F 46.4 °F 100% 30.43 in 1.8 mi WSW 8.1 mph - N/A   Overcast
11:41 AM 46.4 °F 42.4 °F 46.4 °F 100% 30.43 in 3.0 mi SW 8.1 mph - N/A   Overcast
11:53 AM 48.0 °F - 46.9 °F 96% 30.44 in 10.0 mi SW 8.1 mph - N/A   Overcast
12:45 PM 48.2 °F - 46.4 °F 93% 30.41 in 1.8 mi SW 11.5 mph - N/A   Overcast
12:53 PM 48.0 °F - 46.9 °F 96% 30.43 in 1.2 mi SW 10.4 mph - 0.01 in   Overcast
1:10 PM 48.2 °F - 48.2 °F 100% 30.41 in 1.2 mi SSW 6.9 mph - N/A   Overcast
1:25 PM 48.2 °F - 46.4 °F 93% 30.41 in 2.5 mi SW 8.1 mph - N/A   Overcast
1:34 PM 48.2 °F - 46.4 °F 93% 30.41 in 4.0 mi SSW 8.1 mph - N/A   Overcast
1:53 PM 48.0 °F - 48.0 °F 100% 30.42 in 7.0 mi SSW 10.4 mph - N/A   Overcast
2:21 PM 48.2 °F - 46.4 °F 93% 30.39 in 2.0 mi South 11.5 mph - N/A   Overcast
2:34 PM 48.2 °F - 46.4 °F 93% 30.38 in 4.0 mi South 12.7 mph - N/A   Overcast
2:53 PM 48.9 °F - 48.0 °F 97% 30.39 in 9.0 mi SSW 13.8 mph - N/A   Overcast
3:40 PM 48.2 °F - 46.4 °F 93% 30.40 in 1.8 mi SW 17.3 mph - 0.01 in Rain Light Rain
3:53 PM 48.0 °F - 46.9 °F 96% 30.41 in 2.0 mi SW 15.0 mph - 0.01 in   Overcast
4:02 PM 48.2 °F - 46.4 °F 93% 30.40 in 1.5 mi SW 13.8 mph - 0.00 in Rain Light Rain
4:45 PM 48.2 °F - 46.4 °F 93% 30.39 in 2.0 mi SW 13.8 mph - 0.02 in Rain Light Rain
4:53 PM 48.0 °F - 46.9 °F 96% 30.40 in 2.0 mi SW 16.1 mph - 0.02 in Rain Light Rain
5:10 PM 48.2 °F - 46.4 °F 93% 30.39 in 1.5 mi SW 16.1 mph - 0.01 in Rain Light Rain
5:33 PM 46.4 °F 39.8 °F 46.4 °F 100% 30.39 in 2.5 mi SW 16.1 mph - 0.02 in   Overcast
5:53 PM 48.0 °F - 46.9 °F 96% 30.40 in 2.5 mi SW 12.7 mph - 0.02 in   Overcast
6:10 PM 46.4 °F 41.1 °F 46.4 °F 100% 30.38 in 4.0 mi SSW 11.5 mph - N/A   Overcast
6:29 PM 48.2 °F - 46.4 °F 93% 30.39 in 10.0 mi SW 11.5 mph - N/A   Overcast
6:53 PM 46.9 °F - 46.9 °F 100% 30.40 in 2.0 mi SW 13.8 mph - 0.01 in   Overcast
7:27 PM 46.4 °F 40.7 °F 46.4 °F 100% 30.38 in 9.0 mi SSW 12.7 mph - 0.00 in   Overcast
7:36 PM 46.4 °F 41.5 °F 46.4 °F 100% 30.38 in 10.0 mi SSW 10.4 mph - 0.00 in   Overcast
7:53 PM 46.9 °F - 46.0 °F 97% 30.39 in 9.0 mi SSW 12.7 mph - 0.00 in   Overcast
8:10 PM 46.4 °F 40.7 °F 46.4 °F 100% 30.38 in 3.0 mi SSW 12.7 mph - 0.01 in Rain Light Rain
8:25 PM 46.4 °F 40.7 °F 46.4 °F 100% 30.38 in 2.5 mi SSW 12.7 mph - 0.02 in Rain Light Rain
8:32 PM 46.4 °F 40.7 °F 46.4 °F 100% 30.38 in 3.0 mi SSW 12.7 mph - 0.03 in Rain Light Rain
8:53 PM 46.9 °F - 46.9 °F 100% 30.39 in 2.5 mi SSW 13.8 mph - 0.06 in Rain Rain
9:07 PM 46.4 °F 40.4 °F 46.4 °F 100% 30.37 in 3.0 mi SSW 13.8 mph - 0.01 in Rain Light Rain
9:16 PM 46.4 °F 40.1 °F 46.4 °F 100% 30.37 in 2.5 mi SW 15.0 mph - 0.02 in Rain Light Rain
9:53 PM 46.9 °F - 46.9 °F 100% 30.38 in 3.0 mi SSW 16.1 mph - 0.06 in Rain Light Rain
10:44 PM 48.2 °F - 46.4 °F 93% 30.37 in 3.0 mi SW 17.3 mph - 0.01 in   Overcast
10:53 PM 48.0 °F - 46.9 °F 96% 30.38 in 2.5 mi SW 16.1 mph - 0.01 in   Overcast
11:02 PM 48.2 °F - 46.4 °F 93% 30.37 in 4.0 mi SW 16.1 mph - N/A   Overcast
11:11 PM 48.2 °F - 46.4 °F 93% 30.37 in 6.0 mi SW 15.0 mph - N/A   Overcast
11:53 PM 46.9 °F - 46.0 °F 97% 30.38 in 6.0 mi West 12.7 mph - N/A   Overcast